FW3260 Weather Reports


Display with metric or nautical units.
time (UTC)temp
F
wind
direction
speed
MPH
gust
MPH
rain 1hr
in
rain 24hr
in
rain mn
in
humidity
%
barometer
mb
20260510010019 52 68 2.0 4.0 0.05 0.69 0.69 95 1013.1
20260510005018 52 270 2.0 4.0 0.06 0.69 0.69 95 1013.0
20260510004038 51 68 1.0 3.0 0.06 0.68 0.68 95 1013.1
20260510003018 51 68 1.0 3.0 0.09 0.67 0.67 95 1013.1
20260510002018 50 0.0 0.0 0.09 0.66 0.66 94 1013.1
20260510001018 51 0.0 2.0 0.11 0.65 0.65 94 1013.1
20260510000018 50 0.0 2.0 0.12 0.64 0.64 94 1013.2
20260509235018 50 68 1.0 3.0 0.13 0.63 0.63 94 1013.3
20260509234018 50 68 1.0 3.0 0.14 0.62 0.62 94 1013.5
20260509233019 50 0.0 0.0 0.12 0.58 0.58 94 1013.6
20260509232018 50 0.0 1.0 0.13 0.57 0.57 94 1013.5
20260509231018 50 0.0 2.0 0.11 0.54 0.54 94 1013.4
20260509230018 50 90 1.0 2.0 0.11 0.52 0.52 93 1013.2
20260509225018 50 90 1.0 2.0 0.11 0.50 0.50 93 1012.9
20260509224018 50 90 2.0 3.0 0.10 0.48 0.48 93 1012.8
20260509223018 50 90 1.0 2.0 0.10 0.46 0.46 93 1013.0
20260509222019 50 0.0 3.0 0.09 0.44 0.44 93 1013.2
20260509221019 50 0.0 0.0 0.11 0.43 0.43 93 1012.9
20260509220018 50 0.0 1.0 0.13 0.41 0.41 92 1013.0
20260509215019 50 0.0 2.0 0.15 0.39 0.39 92 1013.1
20260509214018 51 0.0 2.0 0.21 0.38 0.38 92 1013.0
20260509213018 51 68 1.0 2.0 0.24 0.36 0.36 92 1013.1
20260509212018 51 270 1.0 4.0 0.27 0.35 0.35 92 1013.0
20260509211018 51 293 1.0 3.0 0.27 0.32 0.32 91 1012.8
20260509210018 51 68 1.0 4.0 0.24 0.28 0.28 91 1012.7
20260509205118 52 0.0 2.0 0.20 0.24 0.24 90 1013.0
20260509204018 52 0.0 2.0 0.13 0.17 0.17 90 1012.8
20260509203018 52 0.0 0.0 0.08 0.12 0.12 90 1012.8
20260509202018 52 0.0 0.0 0.04 0.08 0.08 90 1012.9
20260509201038 52 0.0 2.0 0.01 0.05 0.05 90 1012.8
20260509200018 52 0.0 0.0 0.00 0.04 0.04 90 1013.0
20260509195018 52 90 1.0 3.0 0.00 0.04 0.04 90 1012.9
20260509194018 52 0.0 1.0 0.00 0.04 0.04 90 1012.7
20260509193038 52 315 1.0 2.0 0.00 0.04 0.04 90 1013.0
20260509192018 52 293 1.0 2.0 0.00 0.04 0.04 90 1013.0
20260509191018 52 270 1.0 3.0 0.00 0.04 0.04 91 1013.0
20260509190018 52 90 3.0 6.0 0.00 0.04 0.04 90 1013.1
20260509185018 52 113 1.0 3.0 0.00 0.04 0.04 91 1012.9
20260509184018 51 113 3.0 7.0 0.00 0.04 0.04 90 1012.9
20260509183018 52 68 2.0 6.0 0.00 0.04 0.04 90 1013.0
20260509182018 52 90 1.0 6.0 0.00 0.04 0.04 90 1013.1
20260509181018 52 68 2.0 4.0 0.00 0.04 0.04 90 1013.4
20260509180018 52 90 2.0 7.0 0.00 0.04 0.04 90 1013.9
20260509175017 52 68 2.0 4.0 0.00 0.04 0.04 90 1014.0
20260509174038 52 0.0 2.0 0.00 0.04 0.04 90 1014.1
20260509173018 52 293 2.0 4.0 0.00 0.04 0.04 91 1014.2
20260509172017 52 45 1.0 2.0 0.00 0.04 0.04 91 1014.1
20260509171019 51 90 3.0 8.0 0.00 0.04 0.04 91 1013.8
20260509170019 51 90 1.0 3.0 0.00 0.04 0.04 91 1014.2
20260509165019 51 90 1.0 3.0 0.00 0.04 0.04 91 1014.2
20260509164019 51 90 2.0 7.0 0.00 0.04 0.04 91 1014.3
20260509163039 50 90 1.0 2.0 0.00 0.04 0.04 91 1014.4
20260509162019 50 68 1.0 4.0 0.00 0.04 0.04 91 1014.4
20260509161019 49 113 2.0 3.0 0.01 0.04 0.04 90 1014.5
20260509160019 49 68 2.0 4.0 0.01 0.04 0.04 90 1014.6
20260509155019 49 68 3.0 6.0 0.01 0.04 0.04 90 1014.6
20260509154019 49 113 2.0 6.0 0.01 0.04 0.04 90 1014.6
20260509153019 48 68 2.0 7.0 0.01 0.04 0.04 90 1014.4
20260509152019 49 68 2.0 5.0 0.02 0.04 0.04 90 1014.4
20260509151100 49 68 1.0 3.0 0.01 0.03 0.03 90 1014.5
20260509150019 48 90 1.0 4.0 0.01 0.03 0.03 90 1014.8
20260509145019 48 90 1.0 2.0 0.01 0.03 0.03 90 1014.9
20260509144019 48 0.0 2.0 0.01 0.03 0.03 90 1015.0
20260509143039 47 45 1.0 2.0 0.01 0.03 0.03 89 1015.1
20260509142100 47 68 2.0 3.0 0.00 0.02 0.02 90 1015.3
20260509141039 47 90 1.0 3.0 0.00 0.02 0.02 90 1015.4
20260509140059 46 0.0 3.0 0.01 0.02 0.02 90 1015.5
20260509135040 46 90 1.0 3.0 0.01 0.02 0.02 90 1015.6
20260509134019 46 68 1.0 2.0 0.01 0.02 0.02 90 1015.5
20260509133040 46 248 1.0 4.0 0.01 0.02 0.02 90 1015.4
20260509132019 46 90 1.0 2.0 0.01 0.02 0.02 90 1015.4
20260509131019 45 0.0 1.0 0.01 0.02 0.02 90 1015.4
20260509130019 45 0.0 0.0 0.01 0.01 0.01 90 1015.3
20260509125019 45 0.0 1.0 0.01 0.01 0.01 90 1015.4
20260509124039 45 0.0 0.0 0.01 0.01 0.01 90 1015.5
20260509123039 45 0.0 0.0 0.01 0.01 0.01 90 1015.6
20260509122019 45 0.0 0.0 0.01 0.01 0.01 89 1015.5
20260509121019 45 0.0 0.0 0.01 0.01 0.01 89 1015.6
20260509120019 45 0.0 1.0 0.00 0.00 0.00 89 1015.6
20260509115019 44 0.0 1.0 0.00 0.00 0.00 89 1015.7
20260509114019 44 68 1.0 2.0 0.00 0.00 0.00 89 1015.7
20260509113019 44 0.0 0.0 0.00 0.00 0.00 89 1015.9
20260509112018 43 0.0 0.0 0.00 0.00 0.00 89 1015.8
20260509111019 43 0.0 0.0 0.00 0.00 0.00 88 1015.9
20260509110059 43 0.0 0.0 0.00 0.00 0.00 88 1015.7
20260509105059 42 0.0 0.0 0.00 0.00 0.00 88 1015.7
20260509104019 41 0.0 0.0 0.00 0.00 0.00 88 1015.9
20260509103019 41 0.0 0.0 0.00 0.00 0.00 88 1015.9
20260509102039 40 0.0 0.0 0.00 0.00 0.00 87 1015.7
20260509101018 39 0.0 0.0 0.00 0.00 0.00 87 1015.4
20260509100019 39 0.0 0.0 0.00 0.00 0.00 86 1015.4
20260509095018 39 0.0 0.0 0.00 0.00 0.00 86 1015.3
20260509094019 39 0.0 0.0 0.00 0.00 0.00 86 1015.1
20260509093018 38 0.0 0.0 0.00 0.00 0.00 86 1015.1
20260509092019 38 0.0 0.0 0.00 0.00 0.00 85 1014.8
20260509091020 38 0.0 0.0 0.00 0.00 0.00 85 1015.0
20260509090018 38 0.0 0.0 0.00 0.00 0.00 85 1014.9
20260509085018 38 0.0 0.0 0.00 0.00 0.00 84 1014.6
20260509084018 38 0.0 0.0 0.00 0.00 0.00 84 1014.9
20260509083018 38 0.0 0.0 0.00 0.00 0.00 83 1014.8
20260509082018 39 0.0 0.0 0.00 0.00 0.00 83 1014.6
20260509081018 39 0.0 0.0 0.00 0.00 0.00 83 1014.9
20260509080018 39 0.0 0.0 0.00 0.00 0.00 83 1014.8
20260509075018 39 0.0 0.0 0.00 0.00 0.00 83 1014.7
20260509073018 39 0.0 0.0 0.00 0.00 0.00 82 1014.7
20260509072038 39 0.0 0.0 0.00 0.00 0.00 82 1014.8
20260509071018 39 0.0 0.0 0.00 0.00 0.00 81 1015.0
20260509070018 39 0.0 0.0 0.00 0.00 0.00 80 1015.1
20260509065018 40 0.0 0.0 0.00 0.00 0.00 79 1015.0
20260509064018 40 0.0 0.0 0.00 0.00 0.00 79 1014.8
20260509063039 40 0.0 0.0 0.00 0.00 0.00 78 1014.6
20260509062018 41 0.0 0.0 0.00 0.00 0.00 78 1014.5
20260509061018 41 0.0 0.0 0.00 0.00 0.00 77 1014.7
20260509060018 41 0.0 0.0 0.00 0.00 0.00 77 1014.7
20260509055018 41 0.0 0.0 0.00 0.00 0.00 77 1014.6
20260509054018 42 0.0 0.0 0.00 0.00 0.00 77 1014.6
20260509053038 42 0.0 0.0 0.00 0.00 0.00 76 1014.8
20260509052018 42 0.0 0.0 0.00 0.00 0.00 76 1014.7
20260509051018 42 0.0 0.0 0.00 0.00 0.00 76 1014.7
20260509050018 42 0.0 0.0 0.00 0.00 0.00 76 1014.7
20260509045018 42 0.0 0.0 0.00 0.00 0.00 76 1014.6
20260509044058 42 0.0 0.0 0.00 0.00 0.00 75 1014.6
20260509043018 42 0.0 0.0 0.00 0.00 0.00 75 1014.6
20260509042018 42 0.0 0.0 0.00 0.00 0.00 75 1014.5
20260509041018 43 0.0 0.0 0.00 0.00 0.00 75 1014.5
20260509040038 43 0.0 0.0 0.00 0.00 0.00 74 1014.4
20260509035038 43 0.0 0.0 0.00 0.00 0.00 74 1014.3
20260509034018 43 0.0 0.0 0.00 0.00 0.00 73 1014.2
20260509033058 44 0.0 0.0 0.00 0.00 0.00 73 1014.2
20260509032018 44 0.0 0.0 0.00 0.00 0.00 72 1014.3
20260509031019 44 0.0 0.0 0.00 0.00 0.00 72 1014.2
20260509030018 45 0.0 0.0 0.00 0.00 0.00 71 1014.1
20260509025018 45 0.0 0.0 0.00 0.00 0.00 70 1014.1
20260509024018 45 0.0 0.0 0.00 0.00 0.00 69 1014.1
20260509023038 46 0.0 0.0 0.00 0.00 0.00 68 1014.1
20260509022018 46 0.0 0.0 0.00 0.00 0.00 67 1013.9
20260509021039 47 0.0 0.0 0.00 0.00 0.00 66 1014.0
20260509020018 47 0.0 0.0 0.00 0.00 0.00 65 1013.8
20260509015039 48 0.0 1.0 0.00 0.00 0.00 64 1013.6
20260509014059 49 0.0 0.0 0.00 0.00 0.00 62 1013.5
20260509013038 49 0.0 0.0 0.00 0.00 0.00 60 1013.2
20260509012018 50 0.0 0.0 0.00 0.00 0.00 59 1013.1
20260509011058 50 0.0 0.0 0.00 0.00 0.00 56 1012.9